This demonstration page uses our WeatherBlox Daily Observations layout. Learn more.

40.92945, -100.16068

Hourly Observations for April 18, 2017

Temp ( °F °C ) Dew Point ( °F °C ) Humidity (%) Winds ( mph kmh ) Pressure ( in mb ) Visibility ( mi km ) Precip ( " mm )
12:15 am 00:15 Mostly Cloudy 63 17 55 12.8 76 76 S 16 26 29.88 1012 10 16.0934 0 0
12:35 am 00:35 Partly Cloudy 62 16.5 55 13 80 80 S 14 22 29.85 1011 10 16.0934 0 0
12:55 am 00:55 Clear 61 16 55 13 83 83 S 15 24 29.85 1011 10 16.0934 0 0
1:15 am 01:15 Clear 60 15.7 55 13 84 84 S 13 20 29.85 1011 10 16.0934 0 0
1:35 am 01:35 Clear 60 15.6 55 13 85 85 SSE 13 20 29.85 1011 10 16.0934 0 0
1:55 am 01:55 Clear 60 15.8 55 13 84 84 SSE 14 22 29.85 1011 10 16.0934 0 0
2:15 am 02:15 Partly Cloudy 61 16 56 13.1 83 83 S 16 26 29.85 1011 10 16.0934 0 0
2:35 am 02:35 Cloudy 61 16.1 56 13.2 83 83 SSE 20 31 29.85 1011 10 16.0934 0 0
2:55 am 02:55 Cloudy 61 16 56 13.3 84 84 S 20 31 29.83 1010 10 16.0934 0 0
3:15 am 03:15 Cloudy 60 15.8 56 13.3 85 85 SSE 18 30 29.83 1010 10 16.0934 0 0
3:35 am 03:35 Cloudy 60 15.8 56 13.5 86 86 S 18 30 29.83 1010 10 16.0934 0 0
3:55 am 03:55 Cloudy 60 15.8 56 13.5 86 86 S 17 28 29.8 1009 10 16.0934 0 0
4:15 am 04:15 Cloudy 61 16 56 13.5 85 85 S 13 20 29.83 1010 10 16.0934 0 0
4:35 am 04:35 Cloudy 61 16.1 56 13.6 85 85 S 16 26 29.83 1010 10 16.0934 0 0
4:55 am 04:55 Cloudy 61 16 56 13.5 85 85 SSW 10 17 29.83 1010 10 16.0934 0 0
5:15 am 05:15 Cloudy 61 16.1 56 13.6 85 85 WSW 6 9 29.85 1011 10 16.0934 0 0
5:35 am 05:35 Cloudy 61 16.2 57 13.7 85 85 SSW 10 17 29.85 1011 10 16.0934 0 0
5:55 am 05:55 Cloudy 61 16.2 57 13.7 85 85 SSW 6 9 29.85 1011 10 16.0934 0 0
6:15 am 06:15 Cloudy 61 16.1 57 13.7 86 86 SW 6 9 29.85 1011 10 16.0934 0 0
6:35 am 06:35 Cloudy 61 16.1 57 13.8 86 86 SSW 5 7 29.85 1011 10 16.0934 0 0
6:55 am 06:55 Cloudy 61 16.1 57 13.8 86 86 NNW 5 7 29.85 1011 10 16.0934 0 0
7:15 am 07:15 Cloudy 61 16 57 13.9 87 87 SSW 5 7 29.85 1011 10 16.0934 0 0
7:35 am 07:35 Cloudy 60 15.8 57 14 89 89 NNE 3 6 29.91 1013 7 11.26538 0 0
7:55 am 07:55 Cloudy 61 16 57 14 88 88 N 3 6 29.88 1012 10 16.0934 0 0
8:15 am 08:15 Cloudy 59 15.2 46 7.5 60 60 N 17 28 29.94 1014 10 16.0934 0 0
8:35 am 08:35 Cloudy 58 14.3 44 6.9 61 61 NNE 13 20 29.94 1014 10 16.0934 0 0
8:55 am 08:55 Cloudy 58 14.2 42 5.5 56 56 NNE 14 22 29.94 1014 10 16.0934 0 0
9:15 am 09:15 Partly Cloudy 60 15.5 41 5.1 50 50 NNE 20 31 29.94 1014 10 16.0934 0 0
9:35 am 09:35 Sunny 61 16.2 40 4.3 45 45 NNE 18 30 29.91 1013 10 16.0934 0 0
9:55 am 09:55 Sunny 63 17 40 4.2 43 43 NNE 17 28 29.91 1013 10 16.0934 0 0
10:15 am 10:15 Sunny 64 17.5 40 4.7 43 43 NE 17 28 29.91 1013 10 16.0934 0 0
10:35 am 10:35 Sunny 64 17.9 41 4.9 42 42 NE 15 24 29.91 1013 10 16.0934 0 0
10:55 am 10:55 Sunny 65 18.2 40 4.5 41 41 NE 13 20 29.91 1013 10 16.0934 0 0
11:15 am 11:15 Sunny 67 19.2 40 4.5 38 38 NE 12 19 29.91 1013 10 16.0934 0 0
11:35 am 11:35 Partly Cloudy 67 19.2 38 3.3 35 35 ENE 13 20 29.91 1013 10 16.0934 0 0
11:55 am 11:55 Sunny 67 19.6 37 2.8 33 33 NE 8 13 29.88 1012 10 16.0934 0 0
12:15 pm 12:15 Sunny 68 20.1 38 3.4 33 33 NE 9 15 29.88 1012 10 16.0934 0 0
12:35 pm 12:35 Sunny 69 20.7 38 3.6 33 33 ENE 10 17 29.88 1012 10 16.0934 0 0
12:55 pm 12:55 Sunny 69 20.8 38 3.4 32 32 Calm 29.88 1012 10 16.0934 0 0
1:15 pm 13:15 Sunny 69 20.7 37 3 31 31 ESE 3 6 29.88 1012 10 16.0934 0 0
1:35 pm 13:35 Sunny 71 21.4 37 3 30 30 NNE 3 6 29.88 1012 10 16.0934 0 0
1:55 pm 13:55 Sunny 71 21.6 38 3.2 30 30 ENE 7 11 29.85 1011 10 16.0934 0 0
2:15 pm 14:15 Sunny 71 21.8 38 3.1 29 29 Calm 29.85 1011 10 16.0934 0 0
2:35 pm 14:35 Sunny 73 22.5 38 3.4 29 29 E 6 9 29.85 1011 10 16.0934 0 0
2:55 pm 14:55 Sunny 73 22.6 38 3.4 29 29 ENE 3 6 29.85 1011 10 16.0934 0 0
3:15 pm 15:15 Sunny 74 23.2 38 3.5 28 28 E 9 15 29.83 1010 10 16.0934 0 0
3:35 pm 15:35 Sunny 73 22.7 37 2.6 27 27 E 6 9 29.85 1011 10 16.0934 0 0
3:55 pm 15:55 Sunny 74 23.2 36 2.1 25 25 ENE 3 6 29.83 1010 10 16.0934 0 0
4:15 pm 16:15 Sunny 75 23.7 38 3.2 26 26 ENE 8 13 29.8 1009 10 16.0934 0 0
4:35 pm 16:35 Sunny 74 23.6 38 3.5 27 27 Calm 29.8 1009 10 16.0934 0 0
4:55 pm 16:55 Sunny 74 23.2 38 3.4 28 28 ENE 3 6 29.8 1009 10 16.0934 0 0
5:15 pm 17:15 Sunny 75 24 39 3.9 27 27 NE 5 7 29.8 1009 10 16.0934 0 0
5:35 pm 17:35 Sunny 74 23.2 38 3.5 28 28 NE 8 13 29.8 1009 10 16.0934 0 0
5:55 pm 17:55 Sunny 73 22.6 37 2.8 27 27 NE 6 9 29.8 1009 10 16.0934 0 0
6:15 pm 18:15 Sunny 71 21.9 38 3.2 29 29 NNE 9 15 29.83 1010 10 16.0934 0 0
6:35 pm 18:35 Sunny 72 22.3 38 3.3 29 29 NE 10 17 29.83 1010 10 16.0934 0 0
6:55 pm 18:55 Sunny 70 21 38 3.3 31 31 NNE 13 20 29.83 1010 10 16.0934 0 0
7:15 pm 19:15 Sunny 70 21.1 38 3.1 31 31 NE 12 19 29.83 1010 10 16.0934 0 0
7:35 pm 19:35 Sunny 69 20.7 37 3 31 31 NE 13 20 29.83 1010 10 16.0934 0 0
7:55 pm 19:55 Partly Cloudy 67 19.7 37 2.5 32 32 NE 9 15 29.83 1010 10 16.0934 0 0
8:15 pm 20:15 Partly Cloudy 66 18.9 37 3 35 35 NE 8 13 29.85 1011 10 16.0934 0 0
8:35 pm 20:35 Partly Cloudy 64 18 37 3 37 37 NE 9 15 29.85 1011 10 16.0934 0 0
8:55 pm 20:55 Partly Cloudy 63 17 39 3.9 42 42 ENE 8 13 29.88 1012 10 16.0934 0 0
9:15 pm 21:15 Clear 62 16.8 39 4.1 43 43 ENE 10 17 29.88 1012 10 16.0934 0 0
9:35 pm 21:35 Clear 62 16.5 39 4.1 44 44 ENE 10 17 29.88 1012 10 16.0934 0 0
9:55 pm 21:55 Clear 62 16.5 39 3.7 43 43 ENE 12 19 29.88 1012 10 16.0934 0 0
10:15 pm 22:15 Clear 61 16.2 39 3.7 44 44 E 14 22 29.88 1012 10 16.0934 0 0
10:35 pm 22:35 Clear 62 16.4 38 3.6 43 43 E 10 17 29.88 1012 10 16.0934 0 0
10:55 pm 22:55 Clear 60 15.8 38 3.5 44 44 E 9 15 29.91 1013 10 16.0934 0 0
11:15 pm 23:15 Partly Cloudy 61 16.1 38 3.4 43 43 E 12 19 29.88 1012 10 16.0934 0 0
11:35 pm 23:35 Mostly Cloudy 60 15.7 39 4 46 46 ENE 10 17 29.91 1013 10 16.0934 0 0
11:55 pm 23:55 Partly Cloudy 59 15.1 39 4 48 48 E 13 20 29.88 1012 10 16.0934 0 0

Powered by AerisWeather